Location: Quedlinburg
(51.7921°N, 11.1414°E)
Time: 00:25:20
(UTC+01:00)

STRAND 1 - Visible Passes

Search period start: 15 March 2026 00:00
Search period end: 25 March 2026 00:00
Orbit: 761 x 775 km, 98.4° (Epoch: 14 March)

Date Brightness Start Highest point End Pass type
(mag) Time Alt. Az. Time Alt. Az. Time Alt. Az.
15 Mar ? 04:23:49 10° SE 04:28:39 45° ENE 04:33:31 10° N visible
15 Mar ? 19:45:52 10° N 19:49:58 25° WNW 19:54:04 10° WSW visible
16 Mar ? 03:48:51 10° ESE 03:53:00 26° ENE 03:57:09 10° N visible
16 Mar ? 05:26:41 10° S 05:31:44 60° WSW 05:36:47 10° NNW visible
16 Mar ? 19:09:30 10° N 19:14:20 45° WNW 19:19:07 10° SW visible
17 Mar ? 03:14:40 10° E 03:17:31 15° NE 03:20:21 10° NNE visible
17 Mar ? 04:50:41 10° SSE 04:55:46 73° ENE 05:00:52 10° NNW visible
17 Mar ? 20:13:40 10° NNW 20:16:51 17° NW 20:20:01 10° W visible
18 Mar ? 04:15:15 10° SE 04:19:58 39° ENE 04:24:42 10° N visible
18 Mar ? 19:37:00 10° N 19:41:19 29° WNW 19:45:37 10° WSW visible
19 Mar ? 03:40:27 10° ESE 03:44:21 23° ENE 03:48:15 10° N visible
19 Mar ? 05:17:53 10° S 05:22:58 70° WSW 05:28:04 10° NNW visible
19 Mar ? 19:00:42 10° N 19:05:38 52° WNW 19:10:31 10° SW visible
19 Mar ? 20:42:09 10° NNW 20:43:36 11° NW 20:45:04 10° WNW visible
20 Mar ? 03:06:33 10° ENE 03:08:54 13° NE 03:11:16 10° NNE visible
20 Mar ? 04:42:01 10° SSE 04:47:02 63° ENE 04:52:05 10° N visible
20 Mar ? 20:04:42 10° N 20:08:13 19° NW 20:11:43 10° W visible
21 Mar ? 04:06:44 10° SE 04:11:17 34° ENE 04:15:51 10° N visible
21 Mar ? 19:28:09 10° N 19:32:39 33° WNW 19:37:08 10° SW visible
22 Mar ? 03:32:06 10° E 03:35:43 20° NE 03:39:20 10° N visible
22 Mar ? 05:09:06 10° SSE 05:14:13 81° WSW 05:19:20 10° NNW visible
22 Mar ? 20:32:50 10° NNW 20:35:01 13° NW 20:37:11 10° WNW visible
23 Mar ? 02:58:36 10° ENE 03:00:18 12° NE 03:02:01 10° NNE visible
23 Mar ? 04:33:23 10° SE 04:38:19 54° ENE 04:43:17 10° N visible
23 Mar ? 19:55:46 10° N 19:59:34 22° WNW 20:03:22 10° WSW visible
24 Mar ? 03:58:14 10° ESE 04:02:36 30° ENE 04:06:59 10° N visible
24 Mar ? 05:36:33 10° S 05:41:28 49° W 05:46:26 10° NNW visible
24 Mar ? 19:19:17 10° N 19:23:57 38° WNW 19:28:36 10° SW visible
